2022-098N (53456 NORAD) Tracking and Keplerian Element Data

This shows tracking and keplerian element data for the satellite.

Feedback or suggestion? Click here.




ElementValue
Catalog53456
Name2022-098N
Epoch Orbit1554
Epoch Day325.25796343
Epoch Year2022
RAAN59.8971
Inclination97.5265
Eccentricity0.0009857
Argument of Perigee291.3587
Mean Anonmoly154.8289
Mean Motion15.12292339
Decay Rate0.00029229
L11 53456U 22098N 22325.25796343 .00029229 00000+0 16850-2 0 9992
L22 53456 97.5265 59.8971 0009857 291.3587 154.8289 15.12292339 15541



Live tracking and technical data element details for 2022-098N (NORAD 53456). 2022-098N can be tracked NOW for your location showing map with azimuth and elevation plus other details from your city location.







IsCatalogInMostPopularTable: catalog: 53456, numindb: 8
Update: records affected: 1



GetName: 53456 2022-098N

Hit Count: updated at: Thu, 08 Dec 2022 09:34:14 GMT